Wind_Speed
14 15 15 15 15 16 17 18 18 17 16 16 15 15 15 14 13 13 12 12 12 12 12 12 12 12 12 12 12 11 11 10 9 9 9 8 7 7 6 5 4 4 4 4 4 3 3 3 4
14 14 14 15 16 16 17 18 17 16 16 15 15 15 14 13 13 13 12 12 12 12 12 12 12 12 12 12 12 11 11 10 9 9 8 7 7 6 5 5 4 3 3 3 3 3 3 3 3
13 14 14 15 16 17 17 17 16 15 15 15 15 14 14 13 13 13 12 12 11 11 11 11 12 12 12 12 12 12 11 10 9 8 7 6 6 6 5 5 4 3 2 2 2 3 3 3 3
12 13 13 14 16 16 16 16 16 15 15 15 14 14 13 12 12 12 12 11 11 11 11 11 11 12 12 12 12 11 10 10 9 8 7 7 6 5 5 4 4 3 2 1 2 3 3 3 3
11 12 12 13 14 15 15 16 15 15 14 14 14 13 12 12 12 11 12 11 11 11 11 11 11 12 12 12 12 11 11 10 9 8 7 6 6 5 4 4 3 2 2 2 2 2 3 3 3
10 11 12 13 14 14 15 15 15 15 15 14 14 13 12 12 11 11 11 11 10 10 11 11 12 12 12 12 12 11 11 10 9 8 7 6 5 5 5 3 2 2 1 1 2 3 3 3 3
10 11 12 12 13 14 15 16 16 16 16 15 14 13 13 12 11 11 11 11 9 9 10 11 12 11 11 12 11 11 10 10 10 8 7 5 4 4 4 3 2 2 2 1 3 3 2 2 3
8 8 9 11 13 13 14 15 15 15 15 15 14 13 13 13 12 11 12 11 10 10 11 11 11 11 11 11 11 11 10 10 9 8 7 6 5 5 4 3 3 2 1 1 2 2 2 3 3
8 8 9 11 13 13 14 15 14 14 14 14 14 14 14 13 12 12 11 12 11 11 11 10 11 11 11 11 11 10 10 9 9 8 7 6 6 5 4 4 3 2 1 1 1 2 2 2 3
7 9 9 10 11 12 13 14 14 14 14 13 13 13 13 13 12 12 11 12 11 11 11 11 10 10 11 11 10 10 10 9 9 8 7 6 5 5 5 5 4 3 2 1 1 2 3 3 4
8 8 8 9 10 11 12 13 13 12 12 12 12 11 11 11 12 12 11 11 10 10 10 10 10 10 10 10 10 10 9 10 10 9 8 7 6 6 5 5 4 3 3 2 2 3 3 4 5
6 7 6 7 9 10 11 11 11 11 11 11 11 11 10 11 12 11 11 11 10 10 10 10 9 9 9 9 10 10 9 9 9 8 8 7 7 6 5 5 5 4 3 2 2 3 4 4 5
5 6 6 6 7 9 9 10 9 10 10 11 11 11 11 11 10 10 10 10 10 10 9 9 10 9 9 9 9 9 9 9 9 8 8 7 6 6 5 5 5 5 4 3 3 5 5 5 6
4 4 5 5 5 5 7 8 8 9 10 10 10 10 10 10 10 9 10 10 9 9 8 8 9 9 9 8 8 8 8 8 8 8 7 7 6 5 5 5 4 5 5 4 5 5 5 6 6
4 4 4 3 3 2 3 5 7 7 7 8 8 8 9 9 8 8 8 9 8 8 8 7 8 8 8 8 8 8 8 8 8 8 7 7 6 5 5 5 5 4 5 5 6 6 6 6 6
5 4 3 2 2 1 2 4 4 5 5 6 6 6 7 7 7 7 7 8 8 7 7 7 7 7 8 7 7 8 7 7 7 8 8 7 7 6 6 6 6 5 5 6 6 6 6 6 7
6 5 3 2 2 1 2 2 3 3 4 5 5 4 5 5 6 6 6 6 7 7 6 6 6 6 7 6 7 7 7 8 8 8 8 7 7 7 7 6 6 6 6 6 6 7 7 7 8
7 6 5 4 3 2 2 1 2 3 3 4 4 4 5 5 5 5 5 5 5 6 6 6 6 6 6 6 6 6 7 7 7 7 7 7 7 8 7 7 7 7 7 7 7 7 7 8 8
8 8 7 5 5 6 5 4 3 3 4 4 4 4 5 5 5 5 5 5 5 5 6 7 6 6 6 6 5 6 7 7 7 8 8 8 7 8 8 8 8 8 7 7 8 8 9 8 9
11 10 9 8 8 9 8 6 5 5 5 5 5 4 6 6 6 5 5 4 5 5 6 6 7 6 6 6 5 6 7 7 7 8 8 8 8 8 9 9 9 10 9 8 8 9 9 10 10
12 12 11 11 11 10 9 8 7 7 7 7 6 6 7 7 6 6 5 4 4 4 6 6 7 7 7 6 6 6 7 8 8 8 9 9 8 8 9 10 10 10 10 9 10 10 10 10 11
13 13 14 13 12 11 11 10 9 9 8 9 8 7 7 7 6 6 6 5 5 5 5 6 7 7 8 9 8 8 9 9 9 9 10 10 9 9 10 10 10 10 10 10 11 11 11 11 12
14 14 14 14 13 13 13 13 11 11 11 10 9 8 8 8 8 8 7 7 6 7 7 7 8 8 9 9 9 9 11 11 11 11 11 11 11 11 11 12 11 11 11 11 12 12 13 13 13
15 14 14 15 16 16 15 16 14 13 12 11 10 10 10 10 9 9 8 8 8 9 8 9 9 10 10 10 10 11 12 13 12 12 12 13 13 13 13 13 13 13 13 13 13 14 14 15 15
18 17 17 17 18 18 17 17 16 14 14 13 12 11 10 10 10 10 10 9 9 9 10 11 11 11 11 11 12 13 14 14 14 13 14 14 15 15 15 15 15 15 15 15 15 15 15 16 16
19 19 19 20 19 18 19 19 17 15 14 14 14 12 12 11 11 10 9 9 10 10 11 12 12 12 12 12 13 14 15 15 15 16 16 16 16 16 17 17 17 17 17 17 17 16 17 17 17
19 19 20 21 21 21 20 19 17 16 15 15 15 14 13 13 13 12 12 12 11 11 12 13 13 13 14 14 15 16 16 16 16 17 17 17 17 18 18 18 19 19 19 19 19 19 19 19 20
21 20 20 21 21 22 21 19 19 18 17 16 16 15 15 14 14 14 13 13 12 12 13 14 15 15 16 16 16 16 17 16 17 17 18 19 19 19 19 20 20 21 21 21 21 20 20 21 22
22 22 22 22 22 22 23 20 19 19 17 16 15 15 15 15 14 14 14 14 14 14 15 15 16 16 17 17 17 17 17 17 18 19 20 20 21 21 21 21 22 22 22 22 22 22 22 23 23
23 23 23 23 22 23 23 21 18 18 17 16 16 16 16 16 16 16 15 15 16 17 17 17 17 18 18 18 18 18 18 19 19 20 21 21 22 22 22 22 23 22 22 22 22 23 23 24 24
Wind_Direction
70 70 69 72 72 70 70 69 66 66 66 62 60 59 62 67 67 68 68 70 76 80 80 78 77 77 75 74 75 77 77 81 86 86 87 89 90 92 95 95 102 113 129 139 137 134 136 144 150
70 69 71 74 74 71 69 68 65 64 64 61 58 57 61 66 66 68 70 71 74 75 75 76 75 74 73 72 73 73 75 77 81 84 84 85 85 85 85 86 96 109 131 145 147 144 159 157 160
71 70 72 73 72 70 67 67 65 62 61 59 56 56 59 65 68 68 70 72 75 74 72 74 73 71 70 70 71 72 72 71 73 77 80 80 78 76 80 81 92 99 116 131 156 162 177 178 177
69 70 72 72 71 69 66 65 65 64 61 59 56 55 57 63 67 67 70 70 73 70 69 70 70 69 69 69 69 70 69 66 63 65 67 66 71 77 78 78 81 82 95 133 166 169 181 190 196
71 70 72 75 73 70 69 66 65 64 63 59 58 56 55 62 66 67 69 69 69 68 68 69 69 69 69 67 66 64 64 63 58 56 59 59 61 67 69 74 77 90 108 141 163 181 193 199 206
73 65 70 76 75 72 69 67 65 63 62 59 58 56 57 61 67 70 71 68 68 67 68 70 70 70 70 67 64 63 62 59 58 57 57 56 56 61 59 67 77 82 98 160 179 190 191 198 206
78 72 72 73 76 73 69 66 63 64 60 59 58 59 59 59 64 69 68 68 68 68 70 70 70 69 67 64 62 60 57 56 55 53 54 52 50 54 56 65 79 68 88 151 194 198 199 212 215
86 80 75 73 76 75 72 67 61 60 58 57 56 56 58 61 61 65 64 63 65 68 71 70 69 69 66 61 59 58 55 53 52 50 49 46 44 51 59 71 74 74 131 167 200 210 228 226 236
79 81 76 79 77 74 74 71 65 62 58 57 53 56 60 60 61 62 61 60 63 67 68 70 69 64 62 59 59 56 55 50 46 46 49 49 42 45 54 62 62 63 64 198 207 226 239 233 233
83 86 79 79 80 78 75 71 70 65 61 56 50 56 61 60 59 59 59 59 60 62 65 67 67 63 57 57 57 55 53 49 46 45 44 42 40 40 48 48 50 40 25 349 241 237 241 246 245
95 92 82 81 80 78 74 70 67 65 61 55 52 57 62 60 59 56 55 55 56 56 60 62 63 61 57 58 56 53 52 50 50 48 44 41 38 40 48 42 40 24 11 355 293 271 270 265 260
105 99 91 84 84 79 73 68 61 61 60 55 55 57 59 62 58 52 50 52 54 54 55 56 58 57 56 56 55 52 50 50 49 47 43 41 36 36 32 24 16 11 7 347 305 283 291 280 268
118 101 90 87 84 79 74 69 63 58 58 56 52 53 55 58 59 53 49 49 50 50 52 52 53 56 54 52 52 50 48 46 45 38 33 32 31 27 19 9 6 359 353 350 318 294 299 295 282
137 121 100 95 86 75 72 69 65 58 55 53 49 46 48 53 54 51 48 46 48 50 50 50 48 51 50 48 44 39 36 35 33 28 22 19 19 17 11 1 352 347 341 337 327 313 301 297 289
175 155 128 110 95 65 62 62 56 51 47 43 39 39 41 42 38 36 39 39 43 47 49 50 45 46 47 46 38 31 28 25 23 21 16 14 13 9 6 359 347 335 330 329 323 318 307 300 295
194 183 154 126 123 37 32 55 56 40 33 26 27 29 29 26 25 24 28 37 38 42 45 45 42 40 41 40 35 30 25 21 18 15 12 8 7 3 356 349 345 335 329 327 326 319 312 301 295
211 203 180 175 182 274 1 41 51 24 15 12 13 14 16 13 13 19 27 31 35 37 33 37 36 33 31 32 31 29 27 21 16 12 10 9 7 2 352 342 340 334 328 323 320 315 308 302 297
218 224 223 220 230 252 293 328 13 7 353 355 349 349 358 356 353 354 3 13 19 23 21 26 24 20 20 21 19 21 22 18 13 8 5 3 3 357 350 343 341 336 326 318 312 310 307 303 298
228 234 234 242 251 257 272 278 309 320 318 330 331 328 334 339 332 333 344 356 2 2 8 14 6 5 5 5 3 7 8 5 4 360 355 350 347 348 344 336 333 339 338 331 318 308 303 301 299
236 242 245 250 259 260 264 268 276 284 291 302 317 321 324 325 323 322 329 337 343 347 343 342 347 348 344 343 345 351 347 346 348 348 345 340 338 340 337 336 330 330 324 321 321 318 308 303 300
239 248 251 252 257 264 266 265 268 271 276 285 295 302 311 316 317 319 320 321 331 338 336 335 335 336 334 328 323 327 327 329 330 331 331 329 325 325 323 323 324 325 320 315 315 316 309 308 307
245 253 256 254 256 261 266 270 264 270 274 281 290 293 303 308 309 317 314 312 318 330 331 333 328 328 329 326 318 315 315 316 317 319 319 319 318 315 314 317 317 317 315 312 311 312 310 306 304
249 253 254 255 256 260 265 270 266 274 277 279 285 292 296 300 300 312 314 311 310 316 317 321 320 320 321 320 319 317 312 308 309 310 310 309 309 308 309 309 311 309 307 307 305 305 306 305 302
251 252 255 258 258 260 265 270 271 270 275 274 276 287 296 294 294 297 307 311 308 308 310 310 311 311 312 316 310 312 311 308 304 302 304 304 305 305 304 302 302 302 303 304 304 302 302 301 299
249 252 257 261 263 264 265 267 270 272 271 272 277 283 293 293 292 292 292 303 301 301 300 301 305 308 309 313 312 313 308 305 305 307 305 304 307 307 304 300 301 300 301 301 301 300 300 300 298
249 252 257 261 265 266 265 266 270 273 275 275 275 280 284 287 288 289 292 291 294 297 297 297 299 300 302 305 305 306 303 304 306 308 309 308 308 307 306 304 302 301 300 300 300 298 295 296 296
247 250 255 262 266 267 268 270 271 273 277 280 278 276 280 281 282 285 290 291 291 296 300 299 295 295 298 299 300 301 304 304 306 307 308 309 308 306 305 305 304 302 299 298 297 296 294 294 293
248 250 254 261 268 270 269 271 274 276 276 280 280 276 276 279 282 284 288 291 297 299 299 300 295 294 298 297 297 297 300 302 308 309 306 304 304 306 305 303 302 301 300 297 296 294 293 292 293
248 251 255 260 266 270 273 274 277 279 279 280 278 279 277 277 281 283 285 287 291 295 296 294 291 291 295 296 295 296 299 302 306 306 306 304 303 303 304 303 302 301 300 298 297 295 294 293 292
248 252 255 259 265 270 275 275 277 275 276 277 277 277 277 277 280 284 285 288 292 293 294 294 291 288 290 290 291 296 300 303 304 305 305 303 303 305 304 303 302 301 301 299 298 297 297 294 292
Height
5890 5889 5889 5889 5889 5888 5886 5885 5885 5884 5884 5884 5883 5882 5882 5882 5882 5884 5881 5880 5879 5879 5879 5879 5878 5878 5878 5877 5877 5877 5877 5878 5878 5878 5879 5879 5880 5880 5881 5882 5882 5883 5884 5885 5885 5886 5887 5887 5888
5892 5892 5892 5891 5890 5889 5889 5887 5887 5887 5886 5886 5885 5884 5884 5883 5883 5883 5882 5881 5881 5881 5880 5880 5880 5880 5879 5879 5879 5879 5879 5879 5879 5880 5880 5881 5881 5881 5882 5882 5883 5883 5884 5885 5886 5886 5887 5888 5888
5894 5894 5895 5893 5892 5891 5891 5890 5889 5889 5888 5888 5887 5887 5886 5885 5885 5884 5884 5883 5883 5883 5882 5882 5881 5881 5881 5881 5880 5880 5880 5880 5881 5881 5881 5882 5882 5882 5882 5883 5883 5884 5884 5885 5886 5887 5887 5888 5888
5896 5897 5897 5896 5894 5893 5892 5892 5891 5891 5890 5890 5889 5889 5888 5887 5886 5886 5885 5885 5885 5884 5883 5883 5883 5883 5882 5882 5882 5882 5882 5882 5882 5882 5882 5882 5882 5882 5883 5883 5884 5884 5884 5885 5886 5886 5887 5888 5889
5898 5898 5898 5896 5896 5895 5895 5894 5893 5893 5892 5892 5891 5891 5890 5889 5888 5888 5887 5887 5886 5886 5885 5884 5884 5884 5884 5884 5883 5883 5883 5883 5883 5883 5883 5883 5883 5883 5883 5883 5884 5884 5884 5884 5885 5886 5887 5888 5888
5900 5899 5899 5898 5897 5897 5896 5896 5895 5895 5894 5894 5893 5893 5892 5891 5890 5889 5889 5888 5888 5887 5886 5886 5886 5885 5885 5885 5885 5884 5884 5884 5884 5883 5883 5883 5883 5883 5883 5883 5883 5884 5884 5884 5885 5885 5886 5887 5888
5902 5901 5900 5900 5899 5899 5899 5898 5897 5896 5896 5896 5895 5894 5893 5893 5892 5891 5891 5890 5889 5888 5888 5887 5887 5887 5887 5886 5886 5886 5885 5885 5885 5884 5884 5883 5883 5883 5883 5883 5883 5883 5884 5884 5884 5885 5886 5886 5887
5903 5903 5902 5901 5901 5901 5900 5899 5899 5899 5898 5898 5897 5896 5895 5895 5894 5893 5893 5892 5891 5890 5889 5889 5888 5888 5888 5888 5887 5887 5886 5886 5885 5885 5884 5884 5884 5884 5884 5884 5884 5883 5883 5884 5884 5885 5885 5886 5887
5904 5905 5903 5903 5903 5903 5902 5901 5901 5901 5900 5899 5899 5898 5897 5897 5896 5895 5894 5894 5893 5892 5891 5890 5890 5889 5889 5889 5888 5888 5887 5887 5886 5886 5885 5885 5884 5884 5884 5884 5884 5884 5883 5883 5884 5885 5885 5885 5886
5906 5906 5905 5905 5905 5904 5904 5903 5903 5902 5902 5901 5900 5899 5898 5898 5897 5897 5896 5895 5894 5893 5893 5892 5891 5891 5890 5890 5889 5889 5888 5888 5887 5887 5886 5885 5885 5885 5885 5884 5884 5884 5884 5884 5884 5884 5884 5885 5885
5907 5907 5907 5906 5906 5906 5905 5905 5904 5904 5904 5903 5902 5901 5900 5899 5899 5898 5897 5896 5896 5895 5894 5893 5892 5892 5892 5891 5890 5890 5889 5889 5888 5887 5887 5886 5886 5885 5885 5885 5884 5884 5883 5883 5883 5883 5884 5884 5884
5908 5908 5908 5907 5907 5907 5907 5906 5906 5905 5905 5904 5903 5902 5901 5901 5900 5899 5899 5898 5897 5896 5895 5894 5894 5893 5893 5892 5892 5891 5890 5890 5889 5888 5887 5887 5886 5885 5885 5885 5884 5884 5883 5883 5883 5883 5883 5883 5883
5909 5909 5909 5909 5908 5909 5909 5908 5908 5907 5906 5906 5905 5904 5903 5902 5902 5901 5900 5899 5898 5897 5896 5895 5895 5894 5893 5893 5893 5892 5892 5891 5890 5889 5888 5887 5886 5886 5885 5884 5884 5884 5883 5883 5883 5882 5882 5882 5882
5909 5910 5910 5910 5910 5910 5910 5909 5909 5908 5908 5907 5906 5905 5905 5904 5903 5902 5902 5900 5899 5898 5897 5896 5896 5895 5895 5894 5893 5893 5892 5891 5890 5889 5888 5887 5887 5886 5885 5884 5884 5883 5883 5882 5882 5882 5881 5881 5880
5909 5910 5911 5910 5910 5910 5911 5911 5910 5910 5909 5908 5907 5907 5906 5905 5904 5903 5902 5901 5900 5899 5898 5897 5897 5896 5895 5895 5894 5893 5892 5891 5891 5889 5888 5887 5886 5886 5885 5884 5883 5883 5882 5881 5881 5880 5880 5879 5879
5909 5910 5911 5911 5910 5911 5912 5911 5911 5910 5910 5909 5908 5908 5906 5906 5905 5904 5903 5902 5901 5900 5898 5897 5897 5897 5896 5895 5894 5893 5893 5892 5891 5889 5888 5887 5886 5885 5884 5883 5883 5882 5881 5880 5880 5879 5878 5878 5877
5908 5909 5910 5911 5910 5910 5911 5910 5910 5910 5910 5909 5908 5908 5907 5906 5905 5904 5903 5902 5901 5900 5899 5898 5898 5897 5896 5896 5895 5894 5893 5892 5891 5890 5888 5887 5886 5885 5884 5883 5882 5881 5880 5879 5879 5878 5877 5877 5876
5908 5908 5909 5910 5910 5910 5910 5910 5910 5909 5909 5909 5908 5907 5906 5906 5905 5904 5903 5902 5901 5901 5900 5899 5898 5897 5896 5896 5895 5894 5893 5892 5891 5890 5888 5887 5886 5884 5883 5882 5880 5879 5879 5878 5877 5876 5876 5875 5874
5907 5907 5908 5909 5909 5910 5909 5909 5909 5909 5908 5908 5908 5907 5906 5906 5905 5903 5902 5901 5901 5900 5899 5898 5898 5897 5896 5895 5894 5893 5892 5892 5891 5889 5888 5886 5885 5884 5882 5881 5880 5878 5877 5876 5876 5875 5874 5872 5871
5905 5906 5907 5907 5907 5908 5908 5908 5908 5908 5908 5907 5907 5907 5906 5905 5904 5903 5902 5901 5900 5899 5899 5898 5897 5896 5895 5895 5894 5893 5892 5891 5890 5888 5887 5886 5884 5883 5881 5880 5878 5877 5876 5875 5874 5872 5871 5870 5869
5903 5905 5905 5906 5905 5906 5906 5907 5907 5907 5907 5906 5906 5905 5905 5904 5903 5902 5900 5899 5898 5898 5898 5897 5896 5894 5893 5893 5892 5892 5891 5890 5888 5887 5886 5884 5883 5881 5880 5878 5877 5876 5874 5873 5872 5870 5869 5868 5867
5901 5902 5903 5903 5903 5903 5905 5905 5906 5906 5906 5905 5904 5903 5903 5903 5902 5901 5900 5899 5898 5897 5897 5896 5894 5893 5892 5891 5891 5890 5889 5887 5886 5885 5884 5882 5881 5879 5878 5876 5875 5873 5872 5871 5870 5868 5866 5865 5864
5899 5899 5900 5900 5900 5901 5902 5903 5905 5904 5904 5904 5903 5902 5901 5900 5900 5899 5898 5898 5896 5896 5895 5894 5893 5892 5891 5890 5889 5888 5887 5885 5884 5882 5881 5880 5878 5876 5875 5873 5872 5871 5869 5868 5867 5865 5864 5862 5861
5896 5897 5897 5897 5898 5899 5900 5900 5901 5902 5902 5901 5900 5900 5899 5898 5897 5897 5896 5896 5895 5894 5893 5893 5892 5891 5890 5888 5887 5885 5884 5882 5880 5879 5878 5877 5875 5873 5872 5870 5869 5867 5866 5865 5863 5862 5860 5859 5858
5893 5894 5895 5894 5895 5896 5897 5897 5898 5899 5899 5898 5898 5898 5897 5896 5895 5894 5894 5893 5892 5891 5891 5890 5890 5889 5887 5886 5884 5882 5880 5879 5877 5876 5875 5874 5872 5870 5869 5867 5865 5864 5863 5861 5860 5858 5857 5855 5854
5889 5891 5892 5892 5892 5893 5893 5893 5896 5896 5896 5895 5895 5895 5894 5893 5892 5892 5891 5890 5890 5889 5888 5887 5886 5885 5884 5883 5881 5879 5877 5876 5875 5873 5872 5870 5868 5866 5865 5863 5862 5860 5858 5857 5855 5853 5852 5850 5849
5885 5886 5888 5888 5888 5889 5889 5890 5892 5892 5892 5892 5892 5891 5891 5890 5889 5889 5888 5887 5887 5886 5885 5884 5882 5881 5880 5879 5877 5876 5874 5873 5871 5869 5868 5866 5864 5862 5861 5859 5857 5855 5854 5852 5850 5849 5847 5845 5844
5881 5882 5883 5884 5884 5884 5886 5887 5888 5888 5889 5889 5889 5888 5887 5887 5886 5885 5885 5884 5883 5882 5881 5880 5879 5877 5876 5875 5874 5872 5870 5869 5867 5865 5863 5862 5860 5858 5856 5854 5852 5850 5849 5847 5845 5843 5842 5840 5839
5877 5878 5878 5879 5880 5881 5881 5885 5885 5884 5885 5885 5885 5884 5883 5883 5882 5881 5881 5880 5879 5878 5877 5876 5874 5873 5872 5870 5869 5868 5866 5864 5862 5861 5859 5857 5855 5853 5851 5849 5847 5845 5843 5841 5840 5838 5836 5834 5833
5872 5873 5874 5876 5876 5876 5877 5881 5880 5880 5880 5881 5881 5880 5879 5879 5878 5877 5876 5875 5874 5873 5872 5871 5869 5868 5866 5865 5864 5863 5861 5859 5858 5856 5853 5851 5850 5848 5845 5843 5841 5840 5838 5836 5834 5832 5830 5828 5826